Regional Weather Roundup
Issued by NWS

Home | Current Version | Previous Version | Text Only | Print | Product List | Glossary Off
Versions: 1 2 3 4 5 6 7 8 9 10 11 12 13 14 15 16 17 18 19 20 21 22 23 24 25 26 27 28

000
ASUS45 KCYS 070710
RWRWY

WYOMING REGIONAL WEATHER ROUNDUP
NATIONAL WEATHER SERVICE CHEYENNE WY
1200 AM MST WED DEC 07 2016

NOTE:  "FAIR" INDICATES FEW OR NO CLOUDS BELOW 12,000 FEET
WITH NO SIGNIFICANT WEATHER AND/OR OBSTRUCTIONS TO VISIBILITY.

WYZ001-070800-
YELLOWSTONE NATIONAL PARK

CITY           SKY/WX    TMP DP  RH WIND       PRES   REMARKS
LK YELLOWSTONE   N/A     -3  -6  87 NW3       29.81R
W YELLOWSTONE  NOT AVBL

$$
WYZ002>013-054>058-071-098>099-070800-
NORTHERN WYOMING

CITY           SKY/WX    TMP DP  RH WIND       PRES   REMARKS
JACKSON        CLOUDY     0  -2  92 N6        29.87R WCI -12
CODY           LGT SNOW   4  -1  80 NE6       30.05R WCI  -7
GREYBULL       CLOUDY    10   0  63 W6        30.10R WCI   0
WORLAND        CLOUDY    11   4  73 N8        30.09R WCI  -1
SHERIDAN       CLOUDY     4  -2  76 W15       30.16R WCI -14
BUFFALO        MOCLDY     2  -4  76 N5        30.06R WCI  -8
GILLETTE       CLOUDY     1  -2  87 NW6       30.10R WCI -10
HULETT         CLOUDY     3  -2  78 NW6       30.11R WCI  -8
NEWCASTLE      FAIR       0  -8  71 NW14      30.09R WCI -19

$$
WYZ014>020-022>026-101>103-070800-
CENTRAL WYOMING

CITY           SKY/WX    TMP DP  RH WIND       PRES   REMARKS
BIG PINEY      CLOUDY    -2  -5  87 NE5       29.82S WCI -12
PINEDALE       LGT SNOW   3   1  92 NW6       29.82S WCI  -8
DUBOIS         LGT SNOW   3   0  85 CALM      29.82R
LANDER         CLOUDY     5  -1  76 CALM      29.97R
RIVERTON       CLOUDY     5   0  79 E6        29.98R WCI  -6
CASPER         LGT SNOW   3   0  87 N16       30.00R FOG     WCI -16
DOUGLAS        LGT SNOW   6   1  80 N7        30.04S WCI  -6

$$
WYZ021-027>030-104>119-070800-
SOUTHERN WYOMING

CITY           SKY/WX    TMP DP  RH WIND       PRES   REMARKS
EVANSTON       FAIR       4  -1  80 SW9       29.83R WCI -10
KEMMERER       FLURRIES   0  -4  85 NW3       29.81
FORT BRIDGER   FAIR      10   5  79 SW13      29.86R WCI  -5
ROCK SPRINGS   LGT SNOW   8   6  92 W3        29.84R FOG
DIXON          CLOUDY    16  12  86 CALM      29.85R
RAWLINS        FAIR      -1  -7  75 N10       29.81R WCI -17
SARATOGA       FAIR       5   0  78 W6        29.79R WCI  -6
LARAMIE        CLOUDY    10   2  69 SE20      29.75R WCI  -9
CHEYENNE       LGT SNOW   9   5  84 NE9       29.85F FOG     WCI  -4
TORRINGTON     LGT SNOW  10   2  69 N18G24    30.04R WCI  -8
PINE BLUFFS    CLOUDY    16  10  79 NE10      29.94F WCI   3

$$




USA.gov is the U.S. government's official web portal to all federal, state and local government web resources and services.